Regional Weather Roundup
Issued by NWS Upton, NY

Current Version | Previous Version | Text Only | Print | Product List | Glossary On
Versions: 1 2 3 4 5 6 7 8 9 10 11 12 13 14 15 16 17 18 19 20 21 22 23 24 25 26 27 28 29 30 31 32 33 34 35 36 37 38 39 40 41 42 43 44 45 46 47 48 49 50
000 ASUS41 KOKX 271409 RWROKX REGIONAL WEATHER ROUNDUP NATIONAL WEATHER SERVICE NEW YORK NY 1000 AM EDT WED MAY 27 2015 NOTE: "FAIR" INDICATES FEW OR NO CLOUDS BELOW 12,000 FEET WITH NO SIGNIFICANT WEATHER AND/OR OBSTRUCTIONS TO VISIBILITY. NYZ071-072-176-178-NJZ106-104-271500- NEW YORK CITY METRO AREA CITY SKY/WX TMP DP RH WIND PRES REMARKS CENTRAL PARK CLOUDY 76 66 71 VRB6 30.20S LAGUARDIA APRT PTSUNNY 75 64 68 S8 30.17S KENNEDY INTL CLOUDY 68 60 75 S7 30.19F NEWARK/LIBERTY PTSUNNY 79 68 69 SW10 30.17S BRNX BOT. GARD N/A 75 66 73 W2 30.17F TETERBORO CLOUDY 75 67 76 SW12 30.16S $$ NYZ177-179-078>081-271500- LONG ISLAND NEW YORK CITY SKY/WX TMP DP RH WIND PRES REMARKS FARMINGDALE CLOUDY 68 62 81 S10 30.20S ISLIP CLOUDY 67 61 81 SW12 30.20R SHIRLEY CLOUDY 67 61 81 S13 30.22R WESTHAMPTON CLOUDY 66 60 81 SW13G21 30.23R MONTAUK POINT N/A 65 59 81 S10G18 30.23F $$ NYZ052-065-067-271500- HUDSON VALLEY CITY SKY/WX TMP DP RH WIND PRES REMARKS WHITE PLAINS PTSUNNY 74 66 76 VRB6 30.17F NEWBURGH PTSUNNY 73 68 83 SW7 30.16S MONTGOMERY PTSUNNY 77 69 76 SW12 30.14S POUGHKEEPSIE MOSUNNY 79 66 64 VRB7 30.13S ALBANY CLOUDY 77 65 66 S8 30.09F $$ NJZ001-105-106-008-010-013-015-019>022-104-271500- NEW JERSEY CITY SKY/WX TMP DP RH WIND PRES REMARKS NEWARK/LIBERTY PTSUNNY 79 68 69 SW10 30.17S TETERBORO CLOUDY 75 67 76 SW12 30.16S CALDWELL CLOUDY 73 66 78 CALM 30.17S MORRISTOWN CLOUDY 73 68 83 SW7 30.18S SOMERVILLE CLOUDY 75 68 78 S6 30.15F SUSSEX CLOUDY 74 66 76 VRB5 30.17S ANDOVER N/A 74 67 78 SW6 30.17S TRENTON CLOUDY 76 68 76 SW10 30.17S MILLVILLE CLOUDY 76 68 76 S10 30.20F ATLANTIC CITY PTSUNNY 79 67 66 SW10G17 30.20S WRIGHTSTOWN CLOUDY 77 69 78 SW15 30.16S TOMS RIVER CLOUDY N/A N/A N/A SW12 30.19S BELMAR PTSUNNY 77 64 65 SW9 30.19S $$ PAZ047>061-062-071-271500- EASTERN PENNSYLVANIA CITY SKY/WX TMP DP RH WIND PRES REMARKS PHILADELPHIA CLOUDY 77 68 73 SW14 30.18S ALLENTOWN CLOUDY 77 68 73 S9 30.16S SCRANTON MOSUNNY 80 65 59 SW7 30.13F $$ CTZ002-004>006-009-010-012-RIZ004-006-007-MAZ004-011-015-271500- SOUTHERN NEW ENGLAND IN CT CITY SKY/WX TMP DP RH WIND PRES REMARKS BRADLEY INTL PTSUNNY 76 63 64 S14G21 30.14F HARTFORD MOSUNNY 75 64 68 S10 30.16S DANBURY PTSUNNY 75 64 68 VRB7 30.18F WTRBRY/OXFORD PTSUNNY 73 64 73 SW9 30.20R BRIDGEPORT CLOUDY 70 63 78 S9 30.18F MERIDEN PTSUNNY 74 63 68 S8 30.18S NEW HAVEN CLOUDY 68 61 78 S7 30.19S CHESTER CLOUDY 68 63 83 S9 30.21S GROTON CLOUDY 64 59 83 S6 30.21S WILLIMANTIC MOSUNNY 74 63 68 S9 30.18F IN RI CITY SKY/WX TMP DP RH WIND PRES REMARKS PROVIDENCE PTSUNNY 72 62 71 S10 30.20F BLOCK ISLAND CLOUDY 63 55 77 SW15G22 30.23F WESTERLY CLOUDY 65 58 78 S12 30.22F IN MA CITY SKY/WX TMP DP RH WIND PRES REMARKS BOSTON PTSUNNY 75 63 66 S14 30.15F WORCESTER MOSUNNY 76 63 64 S12 30.18S WESTFIELD PTSUNNY 76 63 64 S13 30.14F PROVINCETOWN MOSUNNY 66 57 72 SW20 30.20S NANTUCKET PTSUNNY 65 58 78 S17 30.26S $$ ANZ330-335-338-340-345-350-353-355-271500- COASTAL MARINE OBSERVATIONS STATION/POSITION TIME SKY/WX TEMP WIND PRES VSBY WAVE AIR SEA DIR/SP/G HT/PER (UTC) (F) (DEG/KT/KT) (MB) (MI) (FT/S) NY HARB ENTRANCE 1350 60 57 190/ 14/ 14 1021.9 3/ 5 4S FIRE IS 1303 56 N/A 4/ 6 20S FIRE ISLAND 1350 60 56 200/ 16/ 17 1022.7 3/ 6 GREAT SOUTH BAY 1300 62 66 210/ 12/ 14 N/A 23SW MTP 1350 58 53 200/ 12/ 14 1023.3 4/ 5 HUDSON CANYON NOT AVBL KINGS POINT 1300 67 56 190/ 8/ 10 1021.4 CENTRAL LI SOUND 1330 61 56 180/ 8/ 8 N/A EASTERN LI SOUND 1300 64 240/ 6/ 8 N/A ROBBINS REEF 1300 68 160/ 10/ 10 1020.7 $$ >>>>>>>>>>>>>>>>>>>>>>>>>>>> KEY <<<<<<<<<<<<<<<<<<<<<<<<<<< > < > SKY/WX - SKY CONDITION/PRESENT WEATHER < > TMP - TEMPERATURE IN FAHRENHEIT < > DP - DEWPOINT IN FAHRENHEIT < > RH - RELATIVE HUMIDITY IN PERCENT < > WIND - DIRECTION AND SPEED IN MPH < > PRES - MEAN SEA LEVEL PRESSURE IN INCHES OF HG < > WCI - WIND CHILL INDEX < > VSB - VISIBILITY IN MILES < > HX - HEAT INDEX < > TC - TEMPERATURE IN CELSIUS < > VRB - VARIABLE WIND DIRECTION < > < >>>>>>>>>>>>>>>>>>>>>>>>>>>> KEY <<<<<<<<<<<<<<<<<<<<<<<<<<<

USA.gov is the U.S. government's official web portal to all federal, state and local government web resources and services.